Volver al catálogo

COSMOS 1275 DEB

ActivoPO
NORAD 18592·DEBRIS·🇷🇺 Russia

Lanzado Jun 4, 1981 desde Plesetsk Cosmodrome

Loading…

Próximos Pases (próximas 24 horas)

TLE

ActualizadoSource: Space-Track

Época: Sep 14, 2026, 06:14 UTC

1 18592U 81053LU  26257.26011108  .00002338  00000-0  82282-3 0  9994
2 18592  82.9374   0.2281 0009628 217.0148 172.0700 14.34509561716482

Sigue COSMOS 1275 DEB en tiempo real con AllMySat

Download on the App Store